Location: La Trinit�
(48.1620°N, 3.4512°W)
Time: 16:49:03
(UTC+00:00)

BREEZE-M R/B - Pass Details

Date: 08 May 2021
Orbit: 311 x 4501 km, 49.7° (Epoch: 23 June)

Event Time Altitude Azimuth Distance (km) Brightness Sun altitude
Rises 22:25:29 0° 268° (W) 2,048 6.1 -20.4°
Reaches altitude 10° 22:27:16 10° 271° (W) 1,209 4.9 -20.6°
Enters shadow 22:28:28 26° 279° (W) 687 3.6 -20.7°
